User: anonymous   Login
Location: Caltech
(34.1382°N, 118.1253°W)
Time: 13:23:34
(UTC-07:00)
Language:

IRS-1A Rocket - Orbit

View from above orbital plane
View from above orbital plane
View from above satellite
View from above satellite

Ground track
Ground track

The orbit data is extracted from the following two-line orbital elements,

1 18961U 88021B   18112.03056351 -.00000323  00000-0 -18329-3 0  9996
2 18961  99.3164 131.5538 0055618 100.8927 312.6262 14.00675602538646
Epoch (UTC): 22 April 2018 00:44:00
Eccentricity: 0.0055618
inclination: 99.3164°
perigee height: 851 km
apogee height: 932 km
right ascension of ascending node: 131.5538°
argument of perigee: 100.8927°
revolutions per day: 14.00675602
mean anomaly at epoch: 312.6262°
orbit number at epoch: 53864

The dashed part of the orbit path shows where the satellite is in the earth's shadow,  

DLR